This is the latest recevied weather packets stored in our database for station/object N1YZ. If no packets are shown the sender has not sent any weather packets the latest 10 day(s).
| Time | Temp. | Humidity | Pressure | Rain* | Wind** | Luminosity | Snow |
|---|---|---|---|---|---|---|---|
| 1777787695 | 9.44° C | 86% | 1038.4 hPa | 0 mm | - | 0 W/m² | - |
| 1777787391 | 9.44° C | 86% | 1038.2 hPa | 0 mm | - | 0 W/m² | - |
| 1777787087 | 10° C | 85% | 1038.3 hPa | 0 mm | - | 0 W/m² | - |
| 1777786785 | 10° C | 84% | 1038.2 hPa | 0 mm | - | 0 W/m² | - |
| 1777786483 | 10° C | 82% | 1038.4 hPa | 0 mm | - | 0 W/m² | - |
| 1777786179 | 10° C | 84% | 1038.2 hPa | 0 mm | - | 0 W/m² | - |
| 1777785877 | 10° C | 84% | 1038.1 hPa | 0 mm | - | 0 W/m² | - |
| 1777785573 | 10° C | 84% | 1037.9 hPa | 0 mm | - | 0 W/m² | - |
| 1777785269 | 10° C | 84% | 1037.9 hPa | 0 mm | - | 0 W/m² | - |
| 1777784966 | 10° C | 84% | 1037.5 hPa | 0 mm | - | 0 W/m² | - |
| 1777784662 | 10° C | 82% | 1037.8 hPa | 0 mm | - | 0 W/m² | - |
| 1777784360 | 10° C | 82% | 1037.7 hPa | 0 mm | - | 0 W/m² | - |
| 1777784057 | 10° C | 82% | 1037.6 hPa | 0 mm | - | 0 W/m² | - |
| 1777783754 | 10° C | 81% | 1037.6 hPa | 0 mm | - | 0 W/m² | - |
| 1777783451 | 10.56° C | 81% | 1037.7 hPa | 0 mm | - | 0 W/m² | - |
| 1777783148 | 10.56° C | 81% | 1037.6 hPa | 0 mm | - | 0 W/m² | - |
| 1777782845 | 10.56° C | 81% | 1037.6 hPa | 0 mm | - | 0 W/m² | - |
| 1777782541 | 11.11° C | 82% | 1037.6 hPa | 0 mm | - | 0 W/m² | - |
| 1777782238 | 11.11° C | 81% | 1037.4 hPa | 0 mm | - | 0 W/m² | - |
| 1777781934 | 11.11° C | 80% | 1037.1 hPa | 0 mm | - | 0 W/m² | - |
| 1777781631 | 11.11° C | 80% | 1037.3 hPa | 0 mm | - | 0 W/m² | - |
| 1777781329 | 11.11° C | 79% | 1037.3 hPa | 0 mm | - | 0 W/m² | - |
| 1777781026 | 11.11° C | 76% | 1037.3 hPa | 0 mm | - | 0 W/m² | - |
| 1777780723 | 11.11° C | 77% | 1037.3 hPa | 0 mm | - | 0 W/m² | - |
| 1777780420 | 11.11° C | 77% | 1037.2 hPa | 0 mm | - | 0 W/m² | - |
* Rain latest hour (hover to see other rain measurements)
** Current wind speed in m/s (hover to see current wind gust speed)